Location: Bow
(51.5261°N, 0.0167°W)
Time: 13:05:38
(UTC+00:00)

MetOp-A - Pass Details

Date: 27 June 2021
Orbit: 819 x 821 km, 98.5° (Epoch: 31 July)

Event Time Altitude Azimuth Distance (km) Brightness Sun altitude
Rises 21:08:56 0° 221° (SW) 3,346 7.2 -6.0°
Reaches altitude 10° 21:12:40 10° 248° (WSW) 2,420 6.8 -6.4°
Maximum altitude 21:15:09 13° 276° (W) 2,204 7.1 -6.6°
Drops below altitude 10° 21:17:38 10° 304° (WNW) 2,428 8.0 -6.8°
Sets 21:21:25 0° 331° (NNW) 3,367 9.7 -7.2°
